Index of /20260504/WXO-DD/model_gdps/15km/12/219
Name Last modified Size Description
Parent Directory -
20260504T12Z_MSC_GDPS_AirTemp_AGL-120m_LatLon0.15_PT219H.grib2 2026-05-04 16:55 911K
20260504T12Z_MSC_GDPS_AirTemp_AGL-2m_LatLon0.15_PT219H.grib2 2026-05-04 16:55 1.0M
20260504T12Z_MSC_GDPS_AirTemp_AGL-40m_LatLon0.15_PT219H.grib2 2026-05-04 16:55 813K
20260504T12Z_MSC_GDPS_AirTemp_AGL-80m_LatLon0.15_PT219H.grib2 2026-05-04 16:55 802K
20260504T12Z_MSC_GDPS_AirTemp_IsbL-0001_LatLon0.15_PT219H.grib2 2026-05-04 16:55 670K
20260504T12Z_MSC_GDPS_AirTemp_IsbL-0005_LatLon0.15_PT219H.grib2 2026-05-04 16:55 697K
20260504T12Z_MSC_GDPS_AirTemp_IsbL-0500_LatLon0.15_PT219H.grib2 2026-05-04 16:55 1.0M
20260504T12Z_MSC_GDPS_AirTemp_IsbL-0700_LatLon0.15_PT219H.grib2 2026-05-04 16:55 971K
20260504T12Z_MSC_GDPS_AirTemp_IsbL-0850_LatLon0.15_PT219H.grib2 2026-05-04 16:55 1.1M
20260504T12Z_MSC_GDPS_AirTemp_IsbL-0925_LatLon0.15_PT219H.grib2 2026-05-04 16:55 1.1M
20260504T12Z_MSC_GDPS_AirTemp_IsbL-1000_LatLon0.15_PT219H.grib2 2026-05-04 16:55 1.1M
20260504T12Z_MSC_GDPS_Albedo_Sfc_LatLon0.15_PT219H.grib2 2026-05-04 16:55 246K
20260504T12Z_MSC_GDPS_ConvectivePrecip-Accum_Sfc_LatLon0.15_PT219H.grib2 2026-05-04 16:55 4.0M
20260504T12Z_MSC_GDPS_DewPointDepression_AGL-2m_LatLon0.15_PT219H.grib2 2026-05-04 16:55 763K
20260504T12Z_MSC_GDPS_DewPointDepression_IsbL-0500_LatLon0.15_PT219H.grib2 2026-05-04 16:55 1.0M
20260504T12Z_MSC_GDPS_DewPointDepression_IsbL-0700_LatLon0.15_PT219H.grib2 2026-05-04 16:55 1.1M
20260504T12Z_MSC_GDPS_DewPointDepression_IsbL-0850_LatLon0.15_PT219H.grib2 2026-05-04 16:55 1.1M
20260504T12Z_MSC_GDPS_DewPointDepression_IsbL-0925_LatLon0.15_PT219H.grib2 2026-05-04 16:55 1.0M
20260504T12Z_MSC_GDPS_DewPointDepression_IsbL-1000_LatLon0.15_PT219H.grib2 2026-05-04 16:55 1.0M
20260504T12Z_MSC_GDPS_DewPoint_AGL-2m_LatLon0.15_PT219H.grib2 2026-05-04 16:55 612K
20260504T12Z_MSC_GDPS_DownwardLongwaveRadiationFlux-Accum_Sfc_LatLon0.15_PT219H.grib2 2026-05-04 16:55 729K
20260504T12Z_MSC_GDPS_DownwardShortwaveRadiationFlux-Accum_Sfc_LatLon0.15_PT219H.grib2 2026-05-04 16:55 897K
20260504T12Z_MSC_GDPS_FreezingRain-Accum_Sfc_LatLon0.15_PT219H.grib2 2026-05-04 16:55 556K
20260504T12Z_MSC_GDPS_GeopotentialHeight_IsbL-0001_LatLon0.15_PT219H.grib2 2026-05-04 16:55 456K
20260504T12Z_MSC_GDPS_GeopotentialHeight_IsbL-0005_LatLon0.15_PT219H.grib2 2026-05-04 16:55 358K
20260504T12Z_MSC_GDPS_GeopotentialHeight_IsbL-0500_LatLon0.15_PT219H.grib2 2026-05-04 16:55 534K
20260504T12Z_MSC_GDPS_GeopotentialHeight_IsbL-0700_LatLon0.15_PT219H.grib2 2026-05-04 16:55 693K
20260504T12Z_MSC_GDPS_GeopotentialHeight_IsbL-0850_LatLon0.15_PT219H.grib2 2026-05-04 16:55 721K
20260504T12Z_MSC_GDPS_GeopotentialHeight_IsbL-0925_LatLon0.15_PT219H.grib2 2026-05-04 16:55 738K
20260504T12Z_MSC_GDPS_GeopotentialHeight_IsbL-1000_LatLon0.15_PT219H.grib2 2026-05-04 16:55 604K
20260504T12Z_MSC_GDPS_IcePellets-Accum_Sfc_LatLon0.15_PT219H.grib2 2026-05-04 16:55 265K
20260504T12Z_MSC_GDPS_LatentHeatNetFlux_Sfc_LatLon0.15_PT219H.grib2 2026-05-04 16:55 724K
20260504T12Z_MSC_GDPS_NetLongwaveRadiationFlux-Accum_Sfc_LatLon0.15_PT219H.grib2 2026-05-04 16:55 923K
20260504T12Z_MSC_GDPS_NetShortwaveRadiationFlux-Accum_Sfc_LatLon0.15_PT219H.grib2 2026-05-04 16:55 879K
20260504T12Z_MSC_GDPS_O3MixingRatio_Sfc_LatLon0.15_PT219H.grib2 2026-05-04 17:19 2.2M
20260504T12Z_MSC_GDPS_O3_EAtm_LatLon0.15_PT219H.grib2 2026-05-04 17:19 2.4M
20260504T12Z_MSC_GDPS_PlanetaryBoundaryLayerHeight_Sfc_LatLon0.15_PT219H.grib2 2026-05-04 16:55 2.5M
20260504T12Z_MSC_GDPS_Precip-Accum_Sfc_LatLon0.15_PT219H.grib2 2026-05-04 16:55 5.0M
20260504T12Z_MSC_GDPS_PrecipRate_Sfc_LatLon0.15_PT219H.grib2 2026-05-04 16:55 2.8M
20260504T12Z_MSC_GDPS_Pressure_MSL_LatLon0.15_PT219H.grib2 2026-05-04 16:55 830K
20260504T12Z_MSC_GDPS_Pressure_Sfc_LatLon0.15_PT219H.grib2 2026-05-04 16:55 1.1M
20260504T12Z_MSC_GDPS_RadiativeTemp_Sfc_LatLon0.15_PT219H.grib2 2026-05-04 16:55 491K
20260504T12Z_MSC_GDPS_Rain-Accum_Sfc_LatLon0.15_PT219H.grib2 2026-05-04 16:55 4.0M
20260504T12Z_MSC_GDPS_RelativeHumidity_AGL-2m_LatLon0.15_PT219H.grib2 2026-05-04 16:55 1.1M
20260504T12Z_MSC_GDPS_Runoff-Accum_Sfc_LatLon0.15_PT219H.grib2 2026-05-04 16:55 138K
20260504T12Z_MSC_GDPS_SensibleHeatNetFlux_Sfc_LatLon0.15_PT219H.grib2 2026-05-04 16:55 477K
20260504T12Z_MSC_GDPS_Snow-Accum_Sfc_LatLon0.15_PT219H.grib2 2026-05-04 16:55 2.2M
20260504T12Z_MSC_GDPS_SnowDepth_Sfc_LatLon0.15_PT219H.grib2 2026-05-04 16:55 1.7M
20260504T12Z_MSC_GDPS_SoilTemp_DBS-0to10cm_LatLon0.15_PT219H.grib2 2026-05-04 16:55 520K
20260504T12Z_MSC_GDPS_SoilTemp_Sfc_LatLon0.15_PT219H.grib2 2026-05-04 16:55 579K
20260504T12Z_MSC_GDPS_SoilVolumetricWaterContent_DBS-0to10cm_LatLon0.15_PT219H.grib2 2026-05-04 16:55 605K
20260504T12Z_MSC_GDPS_SoilVolumetricWaterContent_DBS-0to1cm_LatLon0.15_PT219H.grib2 2026-05-04 16:55 651K
20260504T12Z_MSC_GDPS_SpecificHumidity_AGL-120m_LatLon0.15_PT219H.grib2 2026-05-04 16:55 1.1M
20260504T12Z_MSC_GDPS_SpecificHumidity_AGL-2m_LatLon0.15_PT219H.grib2 2026-05-04 16:55 1.3M
20260504T12Z_MSC_GDPS_SpecificHumidity_AGL-40m_LatLon0.15_PT219H.grib2 2026-05-04 16:55 1.1M
20260504T12Z_MSC_GDPS_SpecificHumidity_AGL-80m_LatLon0.15_PT219H.grib2 2026-05-04 16:55 1.1M
20260504T12Z_MSC_GDPS_SpecificHumidity_IsbL-0001_LatLon0.15_PT219H.grib2 2026-05-04 16:55 1.1M
20260504T12Z_MSC_GDPS_SpecificHumidity_IsbL-0005_LatLon0.15_PT219H.grib2 2026-05-04 16:55 1.3M
20260504T12Z_MSC_GDPS_SpecificHumidity_IsbL-0500_LatLon0.15_PT219H.grib2 2026-05-04 16:55 1.5M
20260504T12Z_MSC_GDPS_SpecificHumidity_IsbL-0700_LatLon0.15_PT219H.grib2 2026-05-04 16:55 1.7M
20260504T12Z_MSC_GDPS_SpecificHumidity_IsbL-0850_LatLon0.15_PT219H.grib2 2026-05-04 16:55 2.0M
20260504T12Z_MSC_GDPS_SpecificHumidity_IsbL-0925_LatLon0.15_PT219H.grib2 2026-05-04 16:55 1.6M
20260504T12Z_MSC_GDPS_SpecificHumidity_IsbL-1000_LatLon0.15_PT219H.grib2 2026-05-04 16:55 1.6M
20260504T12Z_MSC_GDPS_SpecificHumidity_Sfc_LatLon0.15_PT219H.grib2 2026-05-04 16:55 690K
20260504T12Z_MSC_GDPS_Thickness_IsbL-0850to0700_LatLon0.15_PT219H.grib2 2026-05-04 16:55 473K
20260504T12Z_MSC_GDPS_Thickness_IsbL-1000to0500_LatLon0.15_PT219H.grib2 2026-05-04 16:55 374K
20260504T12Z_MSC_GDPS_Thickness_IsbL-1000to0850_LatLon0.15_PT219H.grib2 2026-05-04 16:55 493K
20260504T12Z_MSC_GDPS_TotalCloudCover_Sfc_LatLon0.15_PT219H.grib2 2026-05-04 16:55 837K
20260504T12Z_MSC_GDPS_UVIndex-ClearSky_Sfc_LatLon0.15_PT219H.grib2 2026-05-04 17:19 1.1M
20260504T12Z_MSC_GDPS_UVIndex_Sfc_LatLon0.15_PT219H.grib2 2026-05-04 17:19 1.5M
20260504T12Z_MSC_GDPS_UpwardLongwaveRadiationFlux_NTAtm_LatLon0.15_PT219H.grib2 2026-05-04 16:55 847K
20260504T12Z_MSC_GDPS_VerticalVelocity_IsbL-0500_LatLon0.15_PT219H.grib2 2026-05-04 16:55 1.0M
20260504T12Z_MSC_GDPS_VerticalVelocity_IsbL-0700_LatLon0.15_PT219H.grib2 2026-05-04 16:55 1.2M
20260504T12Z_MSC_GDPS_VerticalVelocity_IsbL-0850_LatLon0.15_PT219H.grib2 2026-05-04 16:55 1.6M
20260504T12Z_MSC_GDPS_WindDir_AGL-10m_LatLon0.15_PT219H.grib2 2026-05-04 16:55 1.3M
20260504T12Z_MSC_GDPS_WindDir_AGL-120m_LatLon0.15_PT219H.grib2 2026-05-04 16:55 1.3M
20260504T12Z_MSC_GDPS_WindDir_AGL-40m_LatLon0.15_PT219H.grib2 2026-05-04 16:55 1.4M
20260504T12Z_MSC_GDPS_WindDir_AGL-80m_LatLon0.15_PT219H.grib2 2026-05-04 16:55 1.4M
20260504T12Z_MSC_GDPS_WindDir_IsbL-0001_LatLon0.15_PT219H.grib2 2026-05-04 16:55 653K
20260504T12Z_MSC_GDPS_WindDir_IsbL-0005_LatLon0.15_PT219H.grib2 2026-05-04 16:55 795K
20260504T12Z_MSC_GDPS_WindDir_IsbL-0500_LatLon0.15_PT219H.grib2 2026-05-04 16:55 1.4M
20260504T12Z_MSC_GDPS_WindDir_IsbL-0700_LatLon0.15_PT219H.grib2 2026-05-04 16:55 1.6M
20260504T12Z_MSC_GDPS_WindDir_IsbL-0850_LatLon0.15_PT219H.grib2 2026-05-04 16:55 1.9M
20260504T12Z_MSC_GDPS_WindDir_IsbL-0925_LatLon0.15_PT219H.grib2 2026-05-04 16:55 2.0M
20260504T12Z_MSC_GDPS_WindDir_IsbL-1000_LatLon0.15_PT219H.grib2 2026-05-04 16:55 2.0M
20260504T12Z_MSC_GDPS_WindGust-Max_AGL-10m_LatLon0.15_PT219H.grib2 2026-05-04 16:55 1.8M
20260504T12Z_MSC_GDPS_WindGust-Min_AGL-10m_LatLon0.15_PT219H.grib2 2026-05-04 16:55 2.2M
20260504T12Z_MSC_GDPS_WindGust_AGL-10m_LatLon0.15_PT219H.grib2 2026-05-04 16:55 2.1M
20260504T12Z_MSC_GDPS_WindSpeed_AGL-10m_LatLon0.15_PT219H.grib2 2026-05-04 16:55 1.1M
20260504T12Z_MSC_GDPS_WindSpeed_AGL-120m_LatLon0.15_PT219H.grib2 2026-05-04 16:55 1.2M
20260504T12Z_MSC_GDPS_WindSpeed_AGL-40m_LatLon0.15_PT219H.grib2 2026-05-04 16:55 1.2M
20260504T12Z_MSC_GDPS_WindSpeed_AGL-80m_LatLon0.15_PT219H.grib2 2026-05-04 16:55 1.2M
20260504T12Z_MSC_GDPS_WindSpeed_IsbL-0001_LatLon0.15_PT219H.grib2 2026-05-04 16:55 505K
20260504T12Z_MSC_GDPS_WindSpeed_IsbL-0005_LatLon0.15_PT219H.grib2 2026-05-04 16:55 691K
20260504T12Z_MSC_GDPS_WindSpeed_IsbL-0500_LatLon0.15_PT219H.grib2 2026-05-04 16:55 1.1M
20260504T12Z_MSC_GDPS_WindSpeed_IsbL-0700_LatLon0.15_PT219H.grib2 2026-05-04 16:55 1.5M
20260504T12Z_MSC_GDPS_WindSpeed_IsbL-0850_LatLon0.15_PT219H.grib2 2026-05-04 16:55 1.8M
20260504T12Z_MSC_GDPS_WindSpeed_IsbL-0925_LatLon0.15_PT219H.grib2 2026-05-04 16:55 1.8M
20260504T12Z_MSC_GDPS_WindSpeed_IsbL-1000_LatLon0.15_PT219H.grib2 2026-05-04 16:55 1.9M
20260504T12Z_MSC_GDPS_WindU_AGL-10m_LatLon0.15_PT219H.grib2 2026-05-04 16:55 1.3M
20260504T12Z_MSC_GDPS_WindU_AGL-120m_LatLon0.15_PT219H.grib2 2026-05-04 16:55 1.0M
20260504T12Z_MSC_GDPS_WindU_AGL-40m_LatLon0.15_PT219H.grib2 2026-05-04 16:55 968K
20260504T12Z_MSC_GDPS_WindU_AGL-80m_LatLon0.15_PT219H.grib2 2026-05-04 16:55 1.0M
20260504T12Z_MSC_GDPS_WindU_IsbL-0001_LatLon0.15_PT219H.grib2 2026-05-04 16:55 597K
20260504T12Z_MSC_GDPS_WindU_IsbL-0005_LatLon0.15_PT219H.grib2 2026-05-04 16:55 689K
20260504T12Z_MSC_GDPS_WindU_IsbL-0500_LatLon0.15_PT219H.grib2 2026-05-04 16:55 1.1M
20260504T12Z_MSC_GDPS_WindU_IsbL-0700_LatLon0.15_PT219H.grib2 2026-05-04 16:55 1.2M
20260504T12Z_MSC_GDPS_WindU_IsbL-0850_LatLon0.15_PT219H.grib2 2026-05-04 16:55 1.4M
20260504T12Z_MSC_GDPS_WindU_IsbL-0925_LatLon0.15_PT219H.grib2 2026-05-04 16:55 1.5M
20260504T12Z_MSC_GDPS_WindU_IsbL-1000_LatLon0.15_PT219H.grib2 2026-05-04 16:55 1.4M
20260504T12Z_MSC_GDPS_WindV_AGL-10m_LatLon0.15_PT219H.grib2 2026-05-04 16:55 1.6M
20260504T12Z_MSC_GDPS_WindV_AGL-120m_LatLon0.15_PT219H.grib2 2026-05-04 16:55 1.0M
20260504T12Z_MSC_GDPS_WindV_AGL-40m_LatLon0.15_PT219H.grib2 2026-05-04 16:55 968K
20260504T12Z_MSC_GDPS_WindV_AGL-80m_LatLon0.15_PT219H.grib2 2026-05-04 16:55 973K
20260504T12Z_MSC_GDPS_WindV_IsbL-0001_LatLon0.15_PT219H.grib2 2026-05-04 16:55 565K
20260504T12Z_MSC_GDPS_WindV_IsbL-0005_LatLon0.15_PT219H.grib2 2026-05-04 16:55 784K
20260504T12Z_MSC_GDPS_WindV_IsbL-0500_LatLon0.15_PT219H.grib2 2026-05-04 16:55 892K
20260504T12Z_MSC_GDPS_WindV_IsbL-0700_LatLon0.15_PT219H.grib2 2026-05-04 16:55 1.2M
20260504T12Z_MSC_GDPS_WindV_IsbL-0850_LatLon0.15_PT219H.grib2 2026-05-04 16:55 1.4M
20260504T12Z_MSC_GDPS_WindV_IsbL-0925_LatLon0.15_PT219H.grib2 2026-05-04 16:55 1.5M
20260504T12Z_MSC_GDPS_WindV_IsbL-1000_LatLon0.15_PT219H.grib2 2026-05-04 16:55 1.7M